TimeCDT,TemperatureF,Dew PointF,Humidity,Sea Level PressureIn,VisibilityMPH,Wind Direction,Wind SpeedMPH,Gust SpeedMPH,PrecipitationIn,Events,Conditions,WindDirDegrees,DateUTC
12:53 AM,80.1,75.9,87,29.89,8.0,SW,5.8,-,N/A,,Clear,220,2012-08-03 05:53:00
1:53 AM,80.1,75.9,87,29.88,10.0,SW,3.5,-,N/A,,Clear,220,2012-08-03 06:53:00
2:53 AM,80.1,75.9,87,29.89,10.0,SSW,3.5,-,N/A,,Clear,210,2012-08-03 07:53:00
3:28 AM,80.6,77.0,89,29.89,10.0,SSW,4.6,-,N/A,,Mostly Cloudy,200,2012-08-03 08:28:00
3:53 AM,80.1,77.0,90,29.89,10.0,SW,4.6,-,N/A,,Mostly Cloudy,220,2012-08-03 08:53:00
4:00 AM,80.6,75.2,84,29.89,10.0,SSW,4.6,-,N/A,,Scattered Clouds,210,2012-08-03 09:00:00
4:53 AM,79.0,75.9,90,29.89,10.0,SSW,4.6,-,N/A,,Clear,200,2012-08-03 09:53:00
5:53 AM,79.0,75.9,90,29.91,10.0,SSW,3.5,-,N/A,,Clear,200,2012-08-03 10:53:00
6:53 AM,79.0,75.9,90,29.92,10.0,Calm,Calm,-,N/A,,Clear,0,2012-08-03 11:53:00
7:53 AM,82.9,77.0,82,29.94,10.0,SSW,4.6,-,N/A,,Clear,200,2012-08-03 12:53:00
8:53 AM,86.0,77.0,74,29.96,10.0,SSW,6.9,-,N/A,,Clear,200,2012-08-03 13:53:00
9:53 AM,88.0,75.9,67,29.97,10.0,SW,8.1,-,N/A,,Partly Cloudy,230,2012-08-03 14:53:00
10:53 AM,89.1,75.0,63,29.98,10.0,WSW,10.4,-,N/A,,Scattered Clouds,250,2012-08-03 15:53:00
11:53 AM,91.0,75.9,61,29.98,10.0,SSW,15.0,-,N/A,,Clear,200,2012-08-03 16:53:00
12:53 PM,90.0,75.9,63,29.97,10.0,NW,9.2,-,N/A,,Scattered Clouds,320,2012-08-03 17:53:00
1:53 PM,87.1,73.9,65,29.97,10.0,West,13.8,-,N/A,,Scattered Clouds,280,2012-08-03 18:53:00
2:53 PM,87.1,71.1,59,29.94,10.0,NW,6.9,-,N/A,,Clear,310,2012-08-03 19:53:00
3:53 PM,91.0,73.0,55,29.92,10.0,SW,10.4,-,N/A,,Clear,220,2012-08-03 20:53:00
4:53 PM,90.0,72.0,55,29.92,10.0,SW,5.8,-,N/A,,Clear,230,2012-08-03 21:53:00
5:53 PM,90.0,75.0,61,29.92,10.0,Variable,3.5,-,N/A,,Clear,0,2012-08-03 22:53:00
6:53 PM,84.9,75.9,74,29.91,10.0,Calm,Calm,-,N/A,,Clear,0,2012-08-03 23:53:00
7:53 PM,84.9,75.9,74,29.91,10.0,Calm,Calm,-,N/A,,Clear,0,2012-08-04 00:53:00
8:53 PM,82.0,77.0,85,29.94,10.0,Calm,Calm,-,N/A,,Clear,0,2012-08-04 01:53:00
9:53 PM,82.0,77.0,85,29.95,10.0,Calm,Calm,-,N/A,,Clear,0,2012-08-04 02:53:00
10:53 PM,81.0,78.1,91,29.95,10.0,Calm,Calm,-,N/A,,Partly Cloudy,0,2012-08-04 03:53:00
11:53 PM,81.0,77.0,88,29.95,10.0,South,3.5,-,N/A,,Clear,170,2012-08-04 04:53:00